Flag for Netherlands Weather past 2 weeks in Rotterdam, Netherlands

Now
46 °F

Low clouds.


Feels Like: 40 °F
Forecast: 45 / 51 °F
Wind: 16 mph from South

Location: Rotterdam Zestienhoven Airport

Current Time: Mar 28, 2015 at 1:32:42 PM

Latest Report: Mar 28, 2015 at 12:55 PM


Visibility: 6 mi

Pressure: 29.92 "Hg

Humidity: 93%

Dew point: 45 °F

Location of RotterdamLocation

Historic Weather in Rotterdam — Graph

°F

Rotterdam temperature yesterday

Maximum temperature yesterday: 48 °F (at 11:25 AM)
Minimum temperature yesterday: 37 °F (at 8:25 PM)
Average temperature yesterday: 44 °F

Past Weeks' High & Low Weather Summary

 TemperatureHumidityPressure
High61 °F (Mar 17, 2:25 PM)100% (Mar 16, 7:25 AM)30.42 "Hg (Mar 16, 7:25 AM)
Low30 °F (Mar 23, 5:25 AM)45% (Mar 17, 4:25 PM)29.62 "Hg (Mar 26, 3:25 PM)
Average42 °F83%30.13 "Hg
* Reported Mar 13 12:25 PM — Mar 28 12:25 PM, Rotterdam, Weather by CustomWeather, © 2015

Note: Actual official high and low records may vary slightly from our data, if they occured in-between our weather recording intervals... More about our weather records

Advertising

Rotterdam weather history for previous 24 hours

 ConditionsComfort  
Time TempWeatherWind HumidityBarometerVisibility
12:25 PM
Sat, Mar 28
46 °FLight rain. Cloudy.16 mph93%29.92 "Hg1 mi
11:55 AM46 °FSprinkles. Broken clouds.16 mph93%29.95 "Hg2 mi
11:25 AM46 °FLight rain. Mostly cloudy.15 mph93%29.95 "HgN/A
10:55 AM46 °FLight rain. Mostly cloudy.14 mph93%29.95 "Hg6 mi
10:25 AM46 °FDrizzle. Mostly cloudy.14 mph87%29.98 "Hg4 mi
9:55 AM46 °FDrizzle. Mostly cloudy.13 mph76%30.01 "HgN/A
9:25 AM45 °FDrizzle. More clouds than sun.13 mph81%30.01 "HgN/A
8:55 AM45 °FMostly cloudy.12 mph76%30.04 "HgN/A
8:25 AM45 °FOvercast.12 mph71%30.04 "HgN/A
7:55 AM43 °FPartly sunny.10 mph76%30.07 "HgN/A
7:25 AM41 °FClear.9 mph81%30.07 "HgN/A
6:55 AM41 °FOvercast.9 mph76%30.07 "HgN/A
6:25 AM41 °FPartly cloudy.8 mph76%30.09 "HgN/A
5:55 AM41 °FOvercast.8 mph76%30.09 "HgN/A
5:25 AM39 °FPartly cloudy.9 mph81%30.09 "HgN/A
4:55 AM39 °FClear.10 mph81%30.12 "HgN/A
4:25 AM41 °FClear.9 mph76%30.12 "HgN/A
3:55 AM41 °FClear.9 mph76%30.15 "HgN/A
3:25 AM39 °FClear.7 mph81%30.15 "HgN/A
2:55 AM41 °FClear.7 mph81%30.15 "HgN/A
2:25 AM39 °FClear.8 mph87%30.15 "HgN/A
1:55 AM37 °FClear.8 mph87%30.18 "HgN/A
1:25 AM37 °FClear.7 mph87%30.18 "HgN/A
12:55 AM37 °FChilly.7 mph87%30.18 "HgN/A
12:25 AM37 °FChilly.6 mph87%30.18 "HgN/A
11:55 PM
Fri, Mar 27
37 °FChilly.5 mph93%30.18 "HgN/A
11:25 PM37 °FChilly.5 mph93%30.18 "HgN/A
10:55 PM37 °FChilly.3 mph93%30.18 "HgN/A
10:25 PM37 °FChilly.3 mph93%30.18 "HgN/A
9:55 PM37 °FChilly.3 mph87%30.18 "HgN/A
9:25 PM39 °FChilly.5 mph87%30.18 "HgN/A
8:55 PM39 °FChilly.7 mph87%30.18 "HgN/A
8:25 PM37 °FChilly.7 mph93%30.18 "HgN/A
7:55 PM39 °FChilly.5 mph87%30.18 "HgN/A
7:25 PM43 °FQuite cool.6 mph76%30.18 "HgN/A
6:55 PM45 °FClear.8 mph76%30.18 "HgN/A
6:25 PM45 °FQuite cool.9 mph71%30.15 "HgN/A
5:55 PM46 °FClear.10 mph66%30.15 "HgN/A
5:25 PM46 °FClear.12 mph71%30.15 "HgN/A
4:55 PM46 °FScattered clouds.13 mph71%30.12 "HgN/A
4:25 PM48 °FBroken clouds.14 mph71%30.12 "HgN/A
3:55 PM48 °FBroken clouds.14 mph71%30.12 "HgN/A
3:25 PM48 °FPartly sunny.15 mph71%30.12 "HgN/A
2:55 PM48 °FMore clouds than sun.14 mph71%30.12 "HgN/A
2:25 PM48 °FOvercast.16 mph71%30.09 "HgN/A
1:55 PM48 °FBroken clouds.17 mph71%30.09 "HgN/A
1:25 PM48 °FBroken clouds.16 mph76%30.07 "HgN/A
Weather by CustomWeather, © 2015

See weather overviewHow to use our weather pages